User: anonymous   Login
Location: Unspecified
(0.0000°N, 0.0000°E)
Time: 09:16:40
(UTC+00:00)
Language:

ORS OBJECT AA - Orbit

View from above orbital plane
View from above orbital plane
View from above satellite
View from above satellite

Ground track
Ground track

The orbit data is extracted from the following two-line orbital elements,

1 39404U 13064AA  17086.42840916 +.00034438 +00000-0 +28394-3 0  9991
2 39404 040.5002 097.5429 0006196 194.1221 165.9432 15.69555453184787
Epoch (UTC): 27 March 2017 10:16:54
Eccentricity: 0.0006196
inclination: 40.5002°
perigee height: 356 km
apogee height: 364 km
right ascension of ascending node: 97.5429°
argument of perigee: 194.1221°
revolutions per day: 15.69555453
mean anomaly at epoch: 165.9432°
orbit number at epoch: 18478

The dashed part of the orbit path shows where the satellite is in the earth's shadow,  

DLR